Theta_e
299 300 302 304 304 305 306 307 308 309 310 310 311 312 312 312 312 312 312 313 313 313 314 314 315 315 316 317 315 314 314 317 320 321 321 320 319 319 319 320 321 321 321 321 322 322 323 323 322 322 322 322 321 321 321 321 320 320 320 319 319 319 319 318 317 316 315 314 315
298 300 301 303 304 305 306 307 307 308 308 310 310 312 312 314 314 314 314 314 315 315 315 316 317 318 318 319 318 317 317 320 321 321 321 321 320 319 319 320 321 321 321 321 321 321 322 321 321 321 321 321 321 320 320 320 320 320 319 319 319 319 318 318 316 316 314 314 314
297 299 300 301 302 303 304 305 306 306 307 308 309 310 312 313 315 316 317 318 318 317 317 317 318 319 320 321 321 321 321 321 320 320 320 320 320 320 320 320 320 320 320 321 321 321 321 321 321 321 321 320 320 320 320 320 320 319 319 318 318 318 318 318 316 316 315 314 313
297 298 299 300 301 302 303 304 305 305 306 308 308 309 310 311 312 315 317 318 318 318 318 317 319 320 321 322 322 322 322 320 319 319 319 320 320 320 320 320 320 320 321 321 321 321 321 321 321 320 320 320 320 319 319 319 319 319 319 319 318 318 318 317 316 316 315 313 313
295 297 298 299 300 301 303 304 304 305 306 306 307 308 308 309 310 312 314 317 317 317 318 319 320 321 321 321 322 322 321 321 320 319 319 320 320 320 320 320 320 320 320 320 320 320 320 320 320 320 320 320 320 319 319 319 319 319 319 319 318 318 318 317 316 315 315 313 313
294 296 297 298 300 301 303 304 304 305 305 306 306 306 307 308 309 310 312 314 316 317 318 318 318 319 320 320 321 321 321 321 320 320 320 320 320 320 320 320 320 320 319 319 319 319 319 319 319 319 319 319 319 319 319 319 319 318 318 318 318 318 317 317 316 315 314 313 312
294 295 296 297 299 300 302 303 304 304 305 305 305 305 305 306 307 308 310 312 315 317 317 317 317 317 318 318 320 321 321 321 321 320 320 320 320 320 320 320 320 319 318 318 319 319 319 319 318 317 317 317 317 318 318 319 318 318 317 317 317 317 317 316 316 315 314 313 312
293 294 295 297 298 299 301 302 303 303 303 304 304 304 305 305 306 307 309 310 313 315 316 317 317 316 316 317 317 318 320 321 320 320 320 320 319 319 319 320 319 318 318 318 318 318 319 318 317 317 317 317 317 317 318 318 318 317 317 316 316 316 317 316 316 315 314 313 312
292 293 294 296 297 299 300 301 302 302 302 303 303 304 305 305 305 307 307 309 310 313 315 316 316 316 316 316 316 317 318 319 320 320 320 320 319 319 319 319 319 319 319 318 318 318 318 318 317 317 316 316 316 317 317 317 317 316 316 315 315 315 315 315 315 314 314 313 312
290 292 293 294 295 297 299 300 301 301 302 302 302 303 304 305 305 306 307 308 309 310 312 314 315 316 316 315 315 315 316 317 318 319 320 320 319 319 319 319 319 319 319 319 319 318 318 317 316 316 316 316 316 316 316 316 316 315 315 315 314 314 314 314 314 314 313 312 311
290 291 292 293 294 296 298 299 300 300 301 301 302 302 303 304 304 305 306 307 308 309 309 312 313 315 315 315 315 315 315 316 316 317 318 318 319 319 319 319 318 318 318 318 318 318 317 317 316 315 315 315 315 315 315 315 315 315 314 314 314 313 313 313 313 313 312 312 310
289 290 291 292 293 295 297 298 299 300 300 300 301 302 302 303 304 305 306 306 307 307 308 310 311 313 314 315 315 315 315 315 315 315 315 316 317 317 318 318 318 318 317 317 317 317 317 316 315 314 314 314 315 315 315 315 314 314 313 312 313 312 312 312 313 313 312 312 310
289 290 291 291 292 294 295 296 297 298 299 299 300 301 302 303 303 304 305 305 305 307 307 309 310 311 312 314 315 315 315 315 315 315 314 314 315 315 315 316 316 316 317 317 317 317 316 315 315 314 314 314 314 314 314 314 313 312 312 312 312 312 312 312 312 312 312 311 309
288 289 290 291 292 293 294 295 296 297 298 298 299 300 301 302 303 304 304 304 305 306 307 307 308 309 310 312 314 315 315 315 315 314 314 314 314 314 314 314 314 314 315 316 316 316 315 315 314 314 314 314 314 314 314 314 313 312 312 312 312 312 312 312 312 312 311 310 309
288 289 289 290 291 291 292 294 295 296 297 298 299 300 300 301 302 303 303 304 304 305 306 307 307 308 309 310 312 314 315 315 315 314 314 313 313 313 313 313 314 314 314 314 314 315 315 314 314 314 314 313 313 314 314 314 313 312 312 312 312 312 312 312 312 311 311 310 309
288 288 289 290 290 291 291 293 294 295 296 297 298 299 300 300 301 302 303 303 304 304 305 305 306 307 307 309 310 312 314 315 315 314 313 313 313 313 313 313 313 313 313 313 314 314 314 314 314 314 313 313 313 313 313 313 313 312 312 312 312 312 312 312 311 311 310 310 308
287 288 288 289 289 290 291 292 293 294 295 296 297 298 299 299 300 301 302 302 303 303 304 305 305 306 306 307 308 309 311 313 314 314 314 313 313 313 313 313 313 313 313 312 312 312 312 313 313 313 313 312 312 312 312 312 312 312 312 312 312 312 312 311 311 310 310 310 308
287 287 288 289 289 289 290 291 292 293 294 295 297 298 298 299 299 300 301 302 302 303 303 304 304 305 305 306 307 308 309 310 311 312 313 314 314 313 313 313 313 313 312 312 312 312 312 312 312 312 312 312 312 311 311 311 311 311 311 311 311 311 311 311 311 310 310 309 308
286 287 287 288 288 289 290 291 292 293 294 295 296 297 298 298 299 299 300 301 302 302 302 303 303 304 304 305 305 306 307 308 309 310 312 314 314 314 314 313 313 313 312 312 312 312 312 311 311 311 311 311 311 311 311 311 311 311 311 311 311 311 311 310 310 310 310 309 308
286 286 287 288 288 289 289 290 291 292 293 294 295 296 297 298 298 298 299 300 301 302 302 302 302 303 303 304 305 305 306 307 307 308 310 312 313 314 314 314 313 313 312 312 312 312 311 311 311 311 311 310 310 310 310 310 310 310 310 310 310 310 310 310 310 310 310 310 308
285 286 286 287 288 289 289 290 290 290 291 292 293 294 296 297 297 298 298 299 300 301 301 302 302 302 302 303 303 304 305 306 306 307 308 309 311 312 314 314 314 313 312 312 312 312 311 311 311 311 310 310 310 310 309 309 309 309 309 309 309 309 309 309 310 310 310 310 309
285 286 286 287 288 288 289 289 290 290 290 291 291 292 294 296 297 297 298 299 300 300 301 301 301 301 302 302 302 303 304 305 305 306 307 308 309 310 312 314 314 313 312 312 311 311 311 311 311 311 310 310 309 309 309 309 309 309 309 308 308 308 308 309 309 309 309 309 309
285 285 286 287 288 289 289 289 290 290 290 290 291 291 292 294 296 297 297 298 299 299 300 300 301 301 301 301 302 302 303 303 304 305 305 306 307 309 310 312 312 312 312 312 311 311 311 311 311 310 310 309 309 309 309 309 309 308 308 307 307 307 307 307 308 308 308 308 308
284 285 286 287 288 288 289 289 289 289 290 290 290 291 292 293 295 296 297 297 298 299 299 300 300 301 301 301 301 301 302 302 302 303 304 305 305 307 308 309 309 309 310 310 311 311 311 311 311 310 310 309 309 309 309 309 309 308 308 307 307 307 307 307 307 307 307 307 307
284 285 286 287 287 288 288 289 289 289 289 290 290 291 291 292 294 295 296 296 297 298 299 299 300 300 300 300 300 300 301 301 301 302 302 303 304 305 307 308 308 308 308 308 309 310 312 312 311 311 310 310 310 310 309 309 309 309 308 308 307 307 307 307 307 307 307 307 307
284 285 285 286 287 287 288 288 288 288 289 289 290 290 291 291 293 294 295 296 296 297 298 299 299 299 299 299 299 299 299 300 300 300 300 301 302 303 305 306 306 306 306 307 309 309 311 312 312 311 311 310 310 310 309 309 309 309 309 308 308 307 307 306 306 306 307 307 307
285 285 285 286 286 287 287 287 288 288 289 289 289 290 290 291 293 294 295 295 296 297 298 298 299 299 299 299 298 298 299 299 299 299 300 300 300 301 303 304 305 305 305 306 308 308 310 310 311 311 311 311 310 309 309 309 309 309 309 308 308 308 307 307 306 306 306 306 307
285 285 285 285 286 286 287 287 287 288 289 289 289 290 290 291 292 293 294 294 295 296 297 297 298 299 298 298 298 298 298 298 298 299 299 299 299 300 301 303 304 304 304 306 307 308 308 309 309 310 310 310 310 310 309 309 309 308 308 308 307 307 307 307 307 307 306 306 306
284 284 285 285 286 286 286 287 287 288 289 289 289 289 290 290 291 292 293 293 294 295 296 297 297 298 298 297 297 297 297 298 298 298 298 298 299 299 300 301 302 303 304 305 306 307 308 308 308 308 309 309 310 310 309 309 309 308 308 307 307 307 307 307 307 307 306 306 306
284 284 284 285 285 286 286 286 287 287 288 289 289 289 290 290 291 291 292 293 293 294 295 296 297 297 297 297 297 297 297 297 297 297 297 297 298 298 299 300 301 302 303 304 305 306 307 307 308 308 308 308 309 310 310 309 309 308 307 307 307 306 306 306 306 306 305 305 305
283 284 284 284 285 285 286 286 286 286 287 287 288 289 289 290 290 291 292 293 293 294 295 296 296 296 296 296 296 296 296 296 296 297 296 296 297 297 298 299 300 301 302 303 304 306 306 307 307 307 307 308 309 310 311 310 309 309 308 308 307 307 306 306 305 305 305 305 305
283 283 283 284 284 285 285 286 286 286 286 286 288 289 289 290 291 291 292 293 293 294 294 295 295 295 295 296 296 296 296 296 296 296 296 296 296 297 297 298 299 300 301 303 304 305 306 306 306 306 307 306 308 310 311 311 311 310 309 308 308 308 307 307 306 305 305 305 305
283 283 283 283 284 285 286 286 287 287 287 287 289 289 290 290 291 292 292 293 293 293 293 294 294 294 295 295 295 295 295 295 295 296 296 296 296 296 296 297 298 299 300 302 303 304 305 306 306 306 306 306 307 308 310 312 312 311 310 309 309 309 308 308 307 306 305 305 305
282 283 283 283 284 285 286 287 287 287 287 287 289 289 290 290 291 292 292 293 293 293 294 294 294 294 295 295 295 294 295 295 295 295 295 295 295 295 296 296 297 298 300 301 302 303 304 305 305 305 305 305 305 307 308 310 311 311 311 310 310 310 309 309 308 308 307 307 306
282 282 282 283 284 285 286 287 287 287 287 287 288 289 290 290 291 291 292 293 293 293 293 294 294 294 294 295 294 294 294 294 294 294 294 295 295 295 295 295 295 297 299 300 301 302 303 304 305 304 304 304 304 305 306 307 309 310 311 311 310 310 310 310 309 309 308 308 307
281 282 282 284 284 285 286 287 287 287 287 287 288 289 289 290 290 291 292 293 293 293 293 293 294 294 294 294 294 294 294 294 293 294 294 294 294 295 295 295 294 296 298 299 300 302 303 304 304 304 303 303 302 303 304 305 307 308 310 311 311 310 310 310 310 310 310 309 308
281 281 282 284 285 285 286 286 287 287 287 287 288 288 289 290 290 291 292 293 292 292 292 293 293 293 293 293 293 293 294 294 293 293 294 294 294 294 294 294 294 295 296 298 300 301 302 303 303 303 303 301 301 302 303 304 305 306 308 309 310 311 311 311 310 310 310 310 309
280 281 282 284 285 285 286 286 287 287 287 287 288 289 289 290 290 291 292 293 292 292 292 293 293 293 293 293 293 293 294 294 293 293 293 294 294 294 294 294 294 294 295 297 299 300 301 302 303 303 302 301 300 301 301 302 303 304 305 306 308 309 310 311 311 311 310 310 308
280 280 281 283 284 285 286 286 287 287 287 287 288 288 289 290 290 291 292 292 292 292 292 293 293 293 293 294 293 293 293 294 293 293 293 293 294 294 294 294 293 293 294 297 298 299 301 302 302 302 302 301 300 300 301 301 302 302 303 303 304 305 308 310 311 312 311 310 308
279 280 281 282 284 285 286 286 287 287 287 287 288 288 289 290 290 291 292 292 292 292 292 293 293 293 293 293 293 293 293 293 293 293 293 293 294 294 295 294 293 293 294 296 298 299 300 301 301 302 301 300 300 300 300 300 301 301 301 301 301 302 304 307 309 311 311 311 309
279 280 280 282 283 284 285 286 287 287 287 287 288 288 289 290 290 291 291 292 292 292 292 293 293 293 293 293 293 293 292 292 292 292 293 293 293 294 294 293 293 292 293 295 297 298 299 300 301 301 301 300 299 299 299 299 299 299 300 300 300 301 301 303 305 308 310 311 311
Wind_Speed
13 12 11 10 10 9 8 8 9 9 9 9 9 8 6 4 4 4 4 4 4 4 4 4 3 4 4 6 5 4 4 5 5 5 5 4 4 4 4 4 3 3 3 4 3 3 3 4 4 4 3 4 4 4 3 3 4 5 5 6 6 7 9 9 9 8 9 8 6
14 14 12 12 11 10 9 9 9 9 9 9 9 9 9 7 5 4 4 4 3 3 3 3 3 4 4 5 5 4 4 5 4 3 3 4 5 5 4 3 2 2 3 4 4 4 3 4 4 3 3 4 4 4 3 3 3 4 5 6 6 6 7 8 8 9 9 8 7
14 14 13 12 12 11 10 9 10 11 11 9 9 9 9 9 8 7 6 5 5 4 3 3 3 3 4 5 5 4 3 2 1 1 2 3 5 5 4 2 2 2 4 4 4 4 4 4 4 3 3 4 4 4 4 4 4 4 5 5 4 5 6 6 7 7 7 6 7
14 14 13 13 14 14 12 10 11 12 11 9 9 9 9 9 8 8 8 7 7 6 5 4 4 3 3 3 3 3 2 3 4 3 2 2 4 5 5 3 3 3 4 5 5 5 5 5 4 3 3 4 5 5 4 4 4 4 3 3 3 4 4 5 6 6 6 6 7
14 14 13 12 14 14 12 11 12 12 11 9 9 9 9 9 8 9 8 8 7 7 8 9 7 6 4 3 3 3 4 5 5 3 2 2 3 4 5 4 4 4 4 5 6 6 6 6 4 4 4 4 4 4 5 6 5 4 3 2 2 3 4 4 5 5 5 5 5
14 14 14 13 14 13 12 11 12 12 11 10 11 12 11 10 10 10 10 9 8 9 9 10 9 8 7 7 5 3 4 5 4 3 3 2 3 4 4 4 4 4 4 4 5 6 6 6 4 4 3 3 4 4 5 6 6 5 4 3 3 3 3 4 4 5 5 6 6
13 14 14 14 15 14 13 13 12 12 11 10 13 14 14 13 13 14 13 11 10 10 9 8 10 10 10 10 8 6 4 4 4 4 3 3 3 3 3 4 4 4 5 5 5 5 5 5 4 4 3 3 3 4 5 5 5 5 5 4 3 3 4 5 4 5 6 8 8
12 13 14 14 14 14 14 14 13 12 12 11 14 16 16 16 16 16 15 13 12 11 10 8 10 11 11 11 10 9 7 4 3 3 3 3 3 3 3 3 4 4 4 5 5 5 5 4 4 3 3 3 3 3 4 5 6 6 5 5 4 3 3 4 5 5 7 9 9
12 13 13 14 14 15 14 14 13 13 13 13 15 16 16 16 17 16 14 12 12 12 12 10 11 12 12 12 11 11 9 7 5 3 3 3 4 4 3 3 3 3 3 4 5 5 5 4 4 3 3 3 3 3 4 6 6 6 6 5 4 4 4 4 5 7 8 9 9
13 13 13 13 15 15 14 14 13 14 14 15 16 16 16 16 16 15 13 11 12 13 14 13 13 12 12 12 11 11 10 9 7 6 4 3 3 3 3 3 3 3 3 3 4 4 5 4 4 4 4 3 3 4 5 6 6 6 5 4 4 5 6 6 7 8 8 9 9
13 13 13 12 14 14 14 13 12 13 14 14 15 15 15 15 15 14 13 13 13 15 15 15 15 14 12 10 10 10 10 9 9 8 7 6 5 3 3 3 3 3 3 3 3 3 4 4 5 5 5 3 3 4 5 6 6 6 5 4 5 6 7 7 7 8 9 9 10
12 12 12 12 13 13 13 13 12 12 13 14 15 14 14 14 15 15 15 15 15 15 15 15 15 14 13 10 10 9 9 10 10 10 9 9 8 7 6 5 5 4 4 3 3 3 3 4 5 6 5 4 4 4 5 6 6 6 6 5 6 7 8 8 8 8 8 9 10
12 12 13 13 13 13 13 12 11 12 13 14 14 13 13 13 14 15 15 16 15 14 13 14 14 14 13 12 10 9 9 9 9 9 9 10 9 9 9 8 7 6 5 4 3 2 3 4 5 5 5 4 4 4 5 6 6 7 6 6 6 7 7 8 8 8 9 10 10
11 12 13 13 14 13 13 13 11 11 12 14 13 13 12 12 13 14 14 14 14 13 12 13 12 12 13 13 12 10 9 8 9 9 10 10 10 10 9 9 8 8 6 5 5 4 4 3 4 4 4 4 4 4 4 5 6 6 7 7 7 7 7 8 9 9 10 10 10
12 13 13 13 14 13 12 13 11 11 12 13 13 12 12 11 12 13 13 13 13 12 12 12 11 12 13 14 14 12 10 9 9 9 9 9 9 9 9 9 9 8 7 7 6 6 5 4 3 3 3 3 3 3 3 4 5 5 6 7 7 7 8 8 8 9 10 11 11
13 13 13 13 14 13 13 12 11 11 12 12 13 12 12 11 11 12 13 13 12 11 11 12 11 11 12 14 14 13 11 9 9 8 8 8 8 8 8 8 8 8 8 7 7 6 6 5 4 3 3 3 2 2 3 3 3 4 4 5 6 7 7 8 8 9 9 10 10
13 13 13 14 14 14 13 13 11 11 12 13 13 13 12 11 11 12 12 13 11 11 12 13 11 11 12 13 13 13 12 11 10 9 8 7 7 7 7 7 7 7 7 7 7 7 6 6 5 4 4 4 3 3 3 3 3 3 3 3 4 5 6 7 7 8 8 9 10
14 14 14 14 14 14 13 13 12 12 13 13 13 13 12 12 12 12 12 13 13 13 13 13 12 12 13 14 13 12 12 12 12 11 9 7 6 6 6 6 5 6 6 6 6 6 6 5 5 4 4 4 4 4 4 4 3 3 3 2 3 4 5 5 6 7 7 8 9
13 13 14 14 13 13 13 13 13 13 13 13 13 13 13 13 13 13 13 14 14 14 14 14 13 14 14 15 14 13 12 12 13 13 12 9 7 5 5 5 4 4 5 5 5 5 4 4 4 4 4 4 4 4 4 4 4 3 3 3 3 3 3 4 5 5 6 7 8
13 13 13 13 12 12 12 12 11 11 11 11 12 13 13 14 14 14 14 14 14 14 14 14 15 15 15 16 15 14 13 11 13 13 13 12 10 7 6 4 4 4 4 4 4 4 4 3 3 3 3 3 4 4 4 4 4 4 3 3 3 3 3 3 4 4 5 6 8
12 12 12 11 11 11 11 11 10 10 10 11 11 12 13 13 13 14 14 14 14 14 14 14 15 15 16 16 15 14 13 11 12 13 13 13 12 10 8 6 5 4 3 3 3 3 3 3 3 3 3 3 3 4 4 4 4 4 4 3 3 4 4 4 4 4 5 6 7
10 10 10 11 11 11 11 10 10 10 10 10 11 11 12 12 13 13 13 13 13 13 14 14 14 15 15 15 15 14 13 11 12 12 12 12 13 12 11 8 7 6 5 4 3 3 3 3 3 3 2 3 3 3 3 4 4 4 4 4 4 4 4 4 4 5 5 5 6
9 9 10 9 10 11 11 11 11 11 11 11 11 11 11 11 12 12 12 12 13 13 13 12 12 13 14 14 14 13 13 13 13 13 14 13 13 13 12 11 11 10 9 7 5 3 2 2 3 3 3 3 3 3 3 3 3 4 4 4 4 4 4 4 5 5 5 5 5
9 9 9 9 10 11 11 11 12 12 12 12 12 11 11 11 11 11 12 13 13 13 12 11 11 12 13 13 13 13 14 14 14 15 15 14 14 13 12 12 12 12 12 10 10 8 4 2 2 3 3 3 3 3 3 3 3 3 3 4 4 4 4 4 4 5 5 5 5
9 9 9 9 10 10 11 11 12 12 12 12 12 12 11 11 11 11 12 13 13 13 12 12 11 11 11 12 13 13 13 14 14 15 15 15 14 13 12 10 11 11 11 13 18 17 12 6 3 2 2 3 3 3 3 3 3 2 2 3 3 4 4 4 4 4 4 5 4
9 9 9 10 10 10 11 11 11 12 12 12 12 12 12 11 11 11 12 13 13 12 12 12 11 11 11 11 12 13 13 12 13 13 14 14 14 13 12 10 9 9 11 16 21 22 19 14 8 3 2 2 2 3 3 2 2 2 2 2 3 3 3 4 4 4 4 4 4
9 9 9 9 10 10 11 11 11 11 12 12 12 12 12 11 11 12 13 14 13 12 12 11 11 11 11 10 12 13 13 12 12 13 13 13 13 13 12 10 9 9 12 19 22 23 22 21 15 9 3 1 2 2 2 2 2 2 2 2 3 3 3 4 4 4 4 4 4
9 9 9 9 10 10 10 10 11 11 12 12 12 11 11 11 12 13 14 14 14 13 12 11 10 9 9 9 11 13 13 12 12 12 12 12 12 12 12 10 9 11 15 22 22 22 22 22 20 16 10 3 0 2 3 3 3 3 2 2 2 3 3 3 3 4 4 4 4
8 8 9 9 9 9 10 10 11 11 11 11 11 11 11 11 12 13 14 14 15 14 12 10 9 9 9 10 11 12 12 12 11 11 11 12 12 12 11 11 10 13 18 23 23 22 21 21 21 20 17 10 3 1 2 3 3 3 3 3 2 2 2 2 3 3 3 4 4
8 8 8 8 9 9 9 10 10 10 10 9 9 10 10 11 12 13 14 14 14 13 12 10 10 10 11 12 11 11 11 11 11 11 12 13 13 12 12 11 11 13 17 23 23 22 22 21 21 20 19 16 7 2 2 2 3 3 3 3 3 3 2 2 3 3 3 3 3
7 7 7 8 8 8 9 9 9 9 8 8 9 10 10 11 11 12 12 13 12 12 12 12 13 13 13 12 12 11 12 11 12 12 12 13 13 12 12 11 11 13 17 23 23 22 22 22 21 21 20 18 10 4 2 2 3 3 3 4 4 4 4 3 3 3 3 3 4
7 7 7 7 8 8 8 8 8 8 8 8 9 9 10 10 10 10 10 11 11 12 13 13 14 14 14 13 12 12 12 12 12 13 13 12 12 12 12 11 11 13 17 22 22 22 22 22 22 21 20 18 11 6 3 2 3 3 4 4 5 5 5 4 4 3 4 4 4
7 7 7 7 7 8 8 8 8 8 8 7 9 10 10 10 10 10 10 10 10 11 12 12 13 13 13 13 12 12 12 12 12 13 13 13 12 12 12 10 10 13 17 22 22 22 22 22 22 21 20 18 11 8 6 4 2 3 3 4 5 6 6 5 5 4 4 4 4
7 7 7 7 7 8 8 8 8 8 7 7 9 10 10 10 10 11 10 10 10 10 10 10 11 11 11 11 11 12 12 12 12 12 13 13 12 12 12 10 9 12 18 22 22 22 21 21 22 21 20 16 11 8 8 7 4 3 3 4 5 6 6 6 6 6 5 5 4
7 7 7 7 7 7 8 8 8 8 8 8 9 10 10 10 10 10 10 10 9 9 9 9 9 9 10 10 10 11 12 12 12 12 12 12 12 12 12 11 10 14 19 21 21 21 21 21 22 21 19 14 9 8 8 8 7 5 3 4 5 6 7 7 7 6 6 6 5
6 7 7 7 7 8 8 9 9 8 9 9 10 10 10 10 9 9 9 9 9 9 9 9 9 9 10 10 10 11 11 12 12 12 12 12 12 12 12 12 12 15 18 21 21 21 21 21 21 20 18 12 9 8 8 7 7 7 6 4 4 5 6 7 7 7 7 7 7
6 6 6 7 7 8 8 9 9 9 9 10 10 9 9 9 9 9 9 9 9 9 9 9 9 10 10 10 10 10 10 11 12 12 12 12 12 12 12 13 12 14 16 20 21 21 20 20 20 19 16 11 9 8 8 7 6 7 8 7 5 4 5 6 7 7 8 8 8
5 5 6 7 7 8 8 8 9 9 10 9 9 8 8 8 8 8 9 9 9 9 9 9 9 9 9 9 9 9 9 10 11 11 11 11 11 12 12 13 12 13 14 18 20 20 20 19 20 19 16 10 9 8 7 7 7 7 7 8 7 6 4 4 4 6 7 9 9
5 5 5 6 6 7 8 8 9 9 9 9 8 8 8 8 7 8 8 8 8 8 8 8 9 9 9 9 8 8 9 9 10 10 11 10 11 12 12 12 12 12 14 17 19 20 19 19 19 19 16 10 9 8 7 6 7 7 7 7 8 8 7 5 4 4 6 8 10
5 5 5 5 5 6 7 8 8 8 8 8 8 8 8 8 7 7 7 7 7 7 7 7 8 8 8 8 8 8 9 9 8 9 9 9 10 11 12 11 11 11 13 16 18 19 19 19 19 19 16 9 8 7 6 6 7 7 7 7 7 7 8 8 6 4 4 6 9
4 4 5 5 5 5 5 7 7 8 8 8 8 7 7 7 7 7 6 6 7 7 6 6 7 8 8 8 7 8 9 9 8 8 8 8 9 10 10 10 10 11 12 14 17 18 19 19 19 19 17 11 8 6 6 6 6 7 8 7 7 6 6 7 7 6 5 4 5
Wind_Direction
348 346 344 344 344 342 341 343 344 344 342 342 340 334 323 298 282 274 270 269 270 271 273 275 275 279 282 283 274 261 248 242 223 205 187 165 144 128 126 145 158 152 137 131 121 108 102 109 114 118 120 121 121 120 121 126 140 147 152 153 151 150 148 147 144 139 135 132 131
347 346 345 346 346 344 344 346 347 346 345 345 344 341 337 331 321 310 301 296 283 276 272 273 275 281 288 292 288 273 253 242 225 202 174 150 133 125 125 143 142 114 96 98 94 85 79 85 96 107 115 118 121 120 119 121 135 142 146 148 148 148 148 147 144 139 134 132 131
347 346 346 347 348 348 347 348 347 346 345 345 345 344 343 343 342 340 338 341 335 323 306 288 288 293 300 305 306 296 272 229 150 125 131 138 128 126 126 135 114 88 79 82 79 77 76 78 83 93 103 113 118 116 113 111 122 131 137 140 143 145 146 146 143 139 134 132 132
348 348 346 345 346 346 346 346 346 346 347 348 348 348 348 347 345 344 343 347 352 351 347 340 331 326 326 328 330 337 5 65 75 79 91 116 121 124 126 127 110 91 82 81 82 81 79 78 79 83 92 102 108 109 108 108 112 118 123 129 133 139 143 143 141 138 135 133 133
349 348 347 345 344 343 342 344 346 348 348 350 353 354 354 351 348 346 345 348 356 0 0 359 358 354 350 350 4 28 52 68 71 70 72 88 105 115 122 125 119 106 92 85 87 86 84 80 77 77 82 91 98 103 106 108 109 109 108 109 119 130 136 137 137 136 134 134 133
347 346 346 345 345 345 345 346 349 350 351 354 358 359 358 356 354 353 353 351 355 1 5 6 5 2 359 359 8 35 66 82 84 82 78 78 90 102 111 118 120 116 108 99 93 89 86 83 80 77 76 81 88 97 104 109 111 110 108 107 114 124 130 133 135 135 135 135 133
346 346 346 345 347 347 348 349 351 353 355 358 1 2 1 358 357 356 355 355 357 2 6 10 9 9 9 7 8 15 37 74 87 94 95 93 93 99 107 114 116 118 120 122 111 100 92 86 86 83 81 82 89 98 105 112 115 116 115 114 117 123 129 134 136 136 137 139 136
348 348 348 347 347 348 349 350 354 357 359 2 3 2 1 360 359 358 358 359 1 2 4 9 11 12 13 14 12 10 13 32 63 88 102 108 105 103 103 104 107 111 117 123 121 115 105 92 89 87 85 86 93 105 114 118 119 119 118 117 117 122 128 133 134 136 139 141 139
352 351 350 350 350 349 349 350 356 360 2 3 3 2 2 2 1 360 360 0 1 2 3 6 9 12 14 16 15 13 10 10 21 44 80 107 112 112 110 107 105 103 103 104 108 107 103 95 88 82 79 82 98 116 125 125 123 121 120 118 120 123 126 127 128 131 135 139 139
355 354 353 353 352 350 349 350 356 1 3 3 3 2 2 3 3 2 1 359 1 4 5 4 6 9 13 15 16 15 14 11 11 14 24 48 81 101 109 110 107 102 95 88 90 92 92 89 84 80 79 88 111 124 127 127 126 125 125 123 125 126 125 123 124 128 133 138 137
355 355 355 355 352 351 351 352 356 0 2 2 2 1 2 3 3 3 2 2 5 6 6 3 4 6 9 13 16 17 17 16 15 15 15 17 24 39 59 75 84 87 87 84 86 89 92 93 90 89 92 110 122 126 126 127 128 128 129 130 132 132 131 129 130 133 136 139 137
355 355 356 356 355 355 355 355 357 360 1 1 1 0 1 1 1 1 3 6 8 8 6 4 4 5 6 8 13 17 19 19 20 20 19 18 18 22 28 36 44 55 65 73 82 95 105 108 105 105 109 123 127 129 129 131 132 132 133 135 138 140 141 141 141 142 141 141 137
355 356 357 358 359 360 0 359 359 360 360 359 359 359 358 358 359 1 4 8 9 8 5 4 5 5 5 4 8 14 20 22 23 24 24 22 22 22 23 26 28 31 36 42 49 67 93 109 111 114 118 127 129 132 136 137 137 138 139 140 143 146 149 151 150 148 145 143 140
357 359 360 360 2 3 4 2 1 359 358 358 358 357 357 356 358 1 4 7 8 8 7 6 6 6 5 4 5 10 17 23 25 27 28 27 25 25 24 25 25 25 26 25 28 37 55 82 100 109 118 126 128 133 139 142 144 145 147 148 150 153 155 156 154 152 149 148 145
360 1 1 2 4 6 6 4 2 359 357 356 356 356 356 356 357 359 2 6 7 8 9 9 8 6 6 5 5 7 11 20 25 29 32 32 30 28 26 26 26 26 27 27 27 30 37 51 68 85 100 115 122 128 133 140 145 151 155 158 157 157 157 158 156 155 154 152 150
1 1 2 3 5 7 7 5 2 358 356 355 354 355 357 356 355 358 1 4 6 8 10 11 10 8 7 8 8 8 8 12 19 25 31 34 33 33 31 30 29 29 30 31 31 30 30 32 40 50 62 75 89 99 109 120 132 144 155 162 160 159 158 158 158 158 157 155 153
0 1 2 3 5 6 6 5 2 359 356 354 354 355 357 357 356 357 359 2 4 6 9 12 12 11 11 11 11 11 10 10 12 16 23 29 33 36 37 37 36 36 36 37 37 35 32 29 31 36 42 48 52 59 70 84 99 114 133 151 156 157 158 157 157 157 155 154 153
359 359 360 2 3 3 3 3 2 359 357 355 355 356 357 358 357 357 359 1 3 5 7 10 12 14 14 15 14 13 12 11 10 10 12 16 23 31 38 43 44 45 47 48 47 45 42 38 37 39 42 45 48 52 59 68 79 90 102 121 141 150 153 155 155 154 152 151 151
357 357 358 359 359 360 360 1 0 359 357 355 355 356 357 358 358 359 360 1 3 4 6 9 12 14 15 15 15 14 13 13 11 9 7 6 9 18 29 40 47 52 56 60 59 58 55 52 51 52 55 58 60 62 65 70 76 84 90 98 117 130 139 145 147 147 147 147 148
355 355 355 354 355 356 357 358 358 357 356 355 356 357 358 359 360 1 1 1 2 3 6 10 12 14 14 14 14 13 12 12 11 9 7 5 5 8 14 26 37 48 57 65 69 68 66 63 63 66 71 76 80 80 81 81 82 84 87 89 97 105 113 121 128 133 138 141 144
353 352 350 350 351 353 353 354 354 355 355 356 356 357 358 360 1 2 1 0 1 4 8 11 13 13 13 13 12 11 10 10 10 10 9 8 7 7 8 14 21 29 40 52 66 73 74 71 69 72 79 87 92 96 96 95 93 91 89 89 90 92 95 99 105 115 124 132 140
349 347 346 347 349 350 352 353 354 356 357 358 358 358 359 1 2 1 0 360 3 7 10 12 13 13 12 11 10 9 9 9 10 11 11 10 9 9 10 14 17 19 20 22 34 55 71 74 67 65 69 80 89 95 100 103 102 100 97 95 93 92 91 91 94 100 108 118 130
344 343 344 346 348 350 352 354 356 359 360 0 359 359 359 1 2 2 2 3 6 9 11 13 13 13 12 11 9 9 9 10 11 11 11 11 10 10 12 17 19 18 16 10 5 10 39 69 67 61 57 60 67 77 87 95 100 103 103 102 99 96 94 93 93 95 98 103 113
341 342 344 346 349 351 353 356 358 0 1 360 359 358 359 360 2 4 5 6 7 9 10 12 13 13 13 12 11 11 11 12 12 11 10 10 9 10 12 18 20 19 15 10 4 1 3 35 58 64 62 58 54 55 60 69 83 95 102 105 102 100 96 94 94 95 97 99 102
341 343 345 348 350 353 355 359 360 360 359 357 357 358 359 359 2 5 8 8 7 8 9 10 12 13 13 13 13 13 13 14 13 11 10 8 8 8 10 16 19 17 13 10 9 8 8 7 22 53 69 70 62 56 53 55 66 81 94 102 103 102 100 98 97 98 100 102 104
345 347 348 349 351 354 358 359 359 358 357 357 358 358 359 359 2 6 9 9 7 6 7 9 11 13 13 13 13 14 15 15 13 11 10 8 7 7 8 12 16 15 11 9 12 13 13 10 9 18 68 89 85 78 72 66 70 76 85 96 102 106 110 110 112 113 114 115 116
350 350 349 348 352 356 358 357 358 358 358 358 358 357 357 358 2 7 10 10 7 6 7 9 11 12 12 12 14 15 15 14 12 11 10 8 7 7 7 9 13 12 9 8 11 13 15 14 10 6 4 117 115 113 110 105 99 90 86 93 97 107 117 125 130 133 134 133 130
352 350 348 350 354 356 356 357 359 359 359 358 357 355 355 358 4 7 10 10 7 7 7 8 9 9 11 12 13 14 14 14 12 10 9 7 8 8 7 6 9 9 7 7 9 11 13 14 12 8 359 335 153 143 136 134 127 115 105 102 98 106 119 132 139 143 144 143 140
350 349 349 352 353 355 356 359 359 358 356 355 353 354 356 1 5 8 9 10 9 8 7 5 5 7 10 11 11 12 13 14 13 11 8 7 7 7 6 4 5 5 5 6 8 9 10 11 11 9 4 351 330 219 162 154 148 140 131 127 120 118 125 136 144 148 147 143 138
350 350 350 351 352 355 357 357 355 353 352 351 353 356 360 4 6 7 8 10 8 7 4 2 3 6 9 9 9 10 11 12 11 10 9 7 6 5 4 2 3 3 3 4 6 7 8 9 9 8 5 359 345 304 205 173 164 157 153 151 149 147 145 146 147 147 145 140 132
349 349 349 350 352 354 354 353 351 350 350 350 355 0 4 7 7 7 7 8 5 3 1 2 4 6 7 8 8 9 9 9 9 9 9 6 4 3 1 359 1 1 2 2 4 5 6 8 8 6 3 360 351 331 258 203 183 174 169 168 168 167 164 158 157 155 149 141 136
350 350 350 351 352 352 351 351 351 351 351 353 360 4 7 7 7 6 4 5 3 2 2 3 4 4 5 5 6 7 7 8 8 7 6 4 2 0 359 359 1 0 360 1 2 3 5 6 7 6 3 360 354 343 318 251 212 193 183 179 178 177 176 174 170 165 160 153 150
351 351 351 351 350 350 351 351 353 353 355 359 6 8 7 5 6 5 5 6 5 4 3 2 3 2 2 2 3 4 5 6 5 4 3 2 0 360 0 0 359 358 358 359 1 2 4 5 6 5 3 0 357 351 342 315 268 223 202 193 189 186 185 182 180 176 172 169 165
350 350 350 350 349 350 351 353 355 357 0 6 10 10 8 5 4 4 5 6 5 4 3 2 2 2 1 2 2 3 3 3 2 1 0 358 358 359 1 1 357 355 356 358 360 1 3 4 5 5 4 1 359 355 350 342 323 281 235 214 203 197 193 191 190 187 184 180 178
348 349 349 348 348 350 353 355 357 1 5 10 11 10 8 6 4 2 1 2 2 2 1 1 1 1 2 3 4 3 2 1 0 360 359 357 357 358 360 359 355 354 355 357 358 360 2 4 5 5 5 2 359 355 351 348 340 323 287 241 220 209 203 199 197 196 193 189 187
346 347 347 347 348 351 355 358 1 4 9 12 11 8 6 5 2 359 357 358 360 1 1 1 1 2 3 4 4 4 2 1 359 359 358 357 356 357 357 357 353 352 353 355 357 359 1 4 6 6 5 3 359 354 352 350 348 341 329 299 256 227 214 207 204 202 200 197 194
342 344 346 347 348 352 356 359 3 8 11 12 10 7 4 2 359 356 355 357 358 359 360 0 2 3 3 3 2 1 360 0 359 358 357 358 356 356 356 355 352 351 351 352 354 357 360 4 6 8 7 3 357 353 351 350 350 349 345 337 316 276 238 221 212 208 205 203 199
337 340 344 346 349 352 356 1 6 9 10 9 7 4 2 1 358 356 356 357 357 357 357 359 1 1 360 359 359 357 357 360 359 358 357 357 356 356 356 354 350 348 348 350 352 355 359 3 6 8 9 4 357 352 349 348 349 350 351 350 343 331 307 264 232 218 212 207 202
332 335 340 344 346 351 356 3 8 9 8 6 4 3 2 2 359 356 354 356 355 354 353 356 357 356 355 356 356 355 356 358 358 357 357 357 355 356 356 354 349 346 345 348 351 354 357 1 5 7 8 7 359 352 347 344 345 348 351 353 350 343 335 321 289 249 226 214 205
328 332 336 340 342 347 355 3 7 8 6 4 3 2 2 1 356 352 351 354 354 352 351 351 352 351 351 354 355 355 355 356 355 355 355 355 353 355 356 353 348 344 343 346 349 353 356 360 2 4 6 7 1 354 346 342 343 346 348 350 349 345 340 334 322 299 260 230 211
327 331 334 336 336 341 349 359 4 5 4 2 1 360 360 359 352 348 348 353 354 352 349 347 349 349 349 351 354 355 355 356 354 352 352 352 352 353 353 351 347 344 343 344 348 352 355 358 360 1 3 4 1 355 348 343 343 344 345 345 343 341 337 333 329 320 300 265 232